FW7738 Weather Reports


Display with metric or nautical units.
time (UTC)temp
F
wind
direction
speed
MPH
gust
MPH
rain 1hr
in
rain 24hr
in
rain mn
in
humidity
%
barometer
mb
20260506111114 68 121 8.0 15.0 0.00 0.00 0.00 55 1010.5
20260506110049 69 138 9.0 17.0 0.00 0.00 0.00 52 1010.4
20260506105025 68 116 8.0 15.0 0.00 0.00 0.00 53 1010.6
20260506104040 68 130 6.0 13.0 0.00 0.00 0.00 52 1010.6
20260506103016 68 132 8.0 16.0 0.00 0.00 0.00 52 1010.6
20260506102031 69 118 6.0 13.0 0.00 0.00 0.00 52 1010.6
20260506101026 69 137 6.0 13.0 0.00 0.00 0.00 51 1010.7
20260506100022 69 144 4.0 8.0 0.00 0.00 0.00 52 1010.7
20260506095017 68 157 4.0 9.0 0.00 0.00 0.00 52 1010.7
20260506094052 69 115 5.0 9.0 0.00 0.00 0.00 51 1010.7
20260506093027 68 109 3.0 9.0 0.00 0.00 0.00 49 1010.7
20260506092022 67 137 3.0 8.0 0.00 0.00 0.00 50 1010.7
20260506091018 68 171 3.0 8.0 0.00 0.00 0.00 50 1010.7
20260506090033 69 193 2.0 6.0 0.00 0.00 0.00 50 1010.6
20260506085028 68 185 1.0 3.0 0.00 0.00 0.00 52 1010.7
20260506084024 67 162 3.0 7.0 0.00 0.00 0.00 53 1010.6
20260506083039 68 131 2.0 4.0 0.00 0.00 0.00 53 1010.7
20260506082034 69 292 0.0 2.0 0.00 0.00 0.00 52 1010.7
20260506081029 67 271 1.0 2.0 0.00 0.00 0.00 55 1010.7
20260506073031 63 264 2.0 4.0 0.00 0.00 0.00 63 1010.8
20260506072026 63 288 2.0 4.0 0.00 0.00 0.00 64 1010.7
20260506071042 62 314 3.0 7.0 0.00 0.00 0.00 66 1010.6
20260506062019 60 306 1.0 2.0 0.00 0.00 0.00 71 1010.6
20260506061035 60 0.0 0.0 0.00 0.00 0.00 71 1010.4
20260506051047 57 307 4.0 7.0 0.00 0.00 0.00 76 1010.2
20260506045038 56 307 2.0 7.0 0.00 0.00 0.00 78 1010.2
20260506044053 56 277 1.0 4.0 0.00 0.00 0.00 79 1010.1
20260506043028 56 322 2.0 4.0 0.00 0.00 0.00 79 1010.0
20260506042024 56 316 2.0 6.0 0.00 0.00 0.00 79 1009.9
20260506041019 57 334 1.0 2.0 0.00 0.00 0.00 78 1010.0
20260506040035 57 334 2.0 4.0 0.00 0.00 0.00 76 1009.9
20260506035030 58 321 1.0 3.0 0.00 0.00 0.00 75 1009.8
20260506034025 58 328 1.0 4.0 0.00 0.00 0.00 75 1009.8
20260506033021 58 332 1.0 3.0 0.00 0.00 0.00 75 1009.9
20260506032016 58 329 1.0 3.0 0.00 0.00 0.00 76 1010.0
20260506031032 58 326 0.0 2.0 0.00 0.00 0.00 76 1010.2
20260506030127 58 323 1.0 3.0 0.00 0.00 0.00 76 1010.2
20260506025023 58 329 1.0 1.0 0.00 0.00 0.00 75 1010.2
20260506024019 58 313 1.0 3.0 0.00 0.00 0.00 75 1010.1
20260506023033 59 280 1.0 2.0 0.00 0.00 0.00 75 1010.2
20260506022049 59 307 0.0 2.0 0.00 0.00 0.00 74 1010.0
20260506021024 59 310 1.0 2.0 0.00 0.00 0.00 72 1009.8
20260506020020 59 328 0.0 2.0 0.00 0.00 0.00 72 1009.9
20260506015055 59 330 1.0 2.0 0.00 0.00 0.00 71 1009.9
20260506014031 60 327 2.0 4.0 0.00 0.00 0.00 69 1009.8
20260506013026 60 328 0.0 1.0 0.00 0.00 0.00 68 1010.0
20260506012021 60 338 0.0 2.0 0.00 0.00 0.00 67 1009.9
20260506011037 60 295 1.0 4.0 0.00 0.00 0.00 67 1010.1
20260506010032 60 300 1.0 2.0 0.00 0.00 0.00 66 1010.1
20260506005027 60 298 0.0 2.0 0.00 0.00 0.00 65 1010.2
20260506004023 61 298 1.0 2.0 0.00 0.00 0.00 65 1010.3
20260506003019 61 303 0.0 2.0 0.00 0.00 0.00 64 1010.4
20260506002055 61 275 1.0 2.0 0.00 0.00 0.00 64 1010.4
20260506001029 61 263 1.0 2.0 0.00 0.00 0.00 63 1010.5
20260506000024 61 263 1.0 1.0 0.00 0.00 0.00 63 1010.6
20260505235020 61 272 1.0 2.0 0.00 0.00 0.00 63 1010.6
20260505234016 61 286 0.0 1.0 0.00 0.00 0.00 63 1010.4
20260505233031 61 332 0.0 1.0 0.00 0.00 0.00 63 1010.5
20260505232026 61 0.0 0.0 0.00 0.00 0.00 62 1010.5
20260505231021 61 18 0.0 1.0 0.00 0.00 0.00 62 1010.4
20260505230017 62 34 1.0 3.0 0.00 0.00 0.00 62 1010.3
20260505225032 61 48 1.0 2.0 0.00 0.00 0.00 63 1010.1
20260505224028 61 60 1.0 3.0 0.00 0.00 0.00 63 1010.3
20260505223023 62 73 0.0 2.0 0.00 0.00 0.00 64 1010.3
20260505222019 62 66 1.0 4.0 0.00 0.00 0.00 62 1010.3
20260505221034 62 33 3.0 8.0 0.00 0.00 0.00 62 1010.2
20260505220029 63 44 3.0 7.0 0.00 0.00 0.00 62 1010.2
20260505215025 63 52 2.0 9.0 0.00 0.00 0.00 62 1010.2
20260505214020 63 53 4.0 10.0 0.00 0.00 0.00 62 1010.1
20260505213015 63 43 6.0 11.0 0.00 0.00 0.00 62 1010.0
20260505212031 63 46 6.0 15.0 0.00 0.00 0.00 62 1010.1
20260505211027 63 56 7.0 14.0 0.00 0.00 0.00 62 1010.2
20260505210042 63 56 5.0 13.0 0.00 0.00 0.00 63 1010.2
20260505205017 63 56 5.0 13.0 0.00 0.00 0.00 67 1009.9
20260505204033 64 47 11.0 19.0 0.00 0.00 0.00 71 1009.8
20260505203028 64 53 10.0 22.0 0.00 0.00 0.00 74 1009.7
20260505202023 64 53 6.0 15.0 0.00 0.00 0.00 75 1009.6
20260505201019 64 58 8.0 15.0 0.00 0.00 0.00 76 1009.5
20260505200034 64 51 6.0 17.0 0.00 0.00 0.00 77 1009.3
20260505195030 65 49 7.0 17.0 0.00 0.00 0.00 77 1008.9
20260505194026 65 67 7.0 13.0 0.00 0.00 0.00 79 1008.7
20260505193041 65 60 5.0 17.0 0.00 0.00 0.00 80 1008.7
20260505192056 65 58 6.0 17.0 0.00 0.00 0.00 82 1008.5
20260505191032 65 58 8.0 19.0 0.00 0.00 0.00 83 1008.3
20260505190027 66 58 8.0 18.0 0.00 0.00 0.00 82 1008.0
20260505185022 66 65 7.0 17.0 0.00 0.00 0.00 81 1007.9
20260505184018 66 55 7.0 18.0 0.00 0.00 0.00 80 1007.7
20260505183033 67 52 5.0 13.0 0.00 0.00 0.00 78 1007.6
20260505182028 68 55 7.0 15.0 0.00 0.00 0.00 77 1007.6
20260505181044 69 70 6.0 14.0 0.00 0.00 0.00 76 1007.4
20260505180020 70 74 4.0 11.0 0.00 0.00 0.00 71 1007.3
20260505175035 71 88 5.0 11.0 0.00 0.00 0.00 68 1007.0
20260505174031 71 82 5.0 13.0 0.00 0.00 0.00 65 1006.9
20260505173025 72 99 8.0 14.0 0.00 0.00 0.00 60 1006.7
20260505172021 73 95 6.0 13.0 0.00 0.00 0.00 57 1006.8
20260505171016 74 93 3.0 9.0 0.00 0.00 0.00 52 1006.8
20260505170032 75 84 2.0 6.0 0.00 0.00 0.00 48 1006.8
20260505165028 75 4 10.0 19.0 0.00 0.00 0.00 47 1006.8
20260505164023 78 321 4.0 10.0 0.00 0.00 0.00 24 1006.9
20260505163018 78 259 5.0 10.0 0.00 0.00 0.00 24 1007.0
20260505162034 78 265 6.0 11.0 0.00 0.00 0.00 24 1007.0
20260505161030 78 309 6.0 14.0 0.00 0.00 0.00 23 1007.0
20260505153051 78 293 7.0 13.0 0.00 0.00 0.00 24 1006.9
20260505152026 78 278 8.0 15.0 0.00 0.00 0.00 24 1006.9
20260505151021 78 282 5.0 14.0 0.00 0.00 0.00 24 1007.1
20260505125017 76 285 5.0 16.0 0.00 0.00 0.00 27 1008.2
20260505124032 76 244 7.0 14.0 0.00 0.00 0.00 28 1008.3
20260505123048 75 310 6.0 15.0 0.00 0.00 0.00 28 1008.2
20260505122023 75 295 4.0 9.0 0.00 0.00 0.00 28 1008.2
20260505121019 76 259 8.0 16.0 0.00 0.00 0.00 29 1008.2
20260505120035 78 240 5.0 11.0 0.00 0.00 0.00 27 1008.3
20260505115050 77 216 6.0 18.0 0.00 0.00 0.00 27 1008.2
20260505114045 76 264 4.0 9.0 0.00 0.00 0.00 27 1008.5
20260505113020 76 278 4.0 11.0 0.00 0.00 0.00 28 1008.6
20260505112015 76 271 3.0 8.0 0.00 0.00 0.00 28 1008.8